Weather Roundup
Issued by NWS

Home | Current Version | Previous Version | Graphics & Text | Print | Product List | Glossary Off
Versions: 1 2 3 4 5 6 7 8 9 10 11 12 13 14 15 16 17 18 19 20 21 22 23 24 25 26 27 28 29 30 31 32 33 34 35 36 37 38 39 40 41 42 43 44 45 46 47 48 49 50

925
NZUS93 KARX 192259
HRRWXR

CURRENT HOURLY OBSERVATIONS ACROSS
MUCH OF THE UPPER MISSISSIPPI VALLEY
NATIONAL WEATHER SERVICE LA CROSSE WI
600 PM CDT THU OCT 19 2017


...SOUTHEAST MINNESOTA...


CITY           SKY/WX    TMP DP  RH WIND       PRES   REMARKS
ROCHESTER      CLEAR     65  37  35 S12       30.02F
ROCHESTER/MAYO FAIR      69  34  27 S13       30.02S
WINONA         CLEAR     66  36  32 S3        30.03S
AUSTIN         CLEAR     64  34  32 S9        30.01F
ALBERT LEA     NOT AVBL
DODGE CENTER   CLEAR     64  34  32 S10       30.01F
PRESTON        CLEAR     64  34  33 S9        30.05F
OWATONNA       CLEAR     66  39  37 S12G18    29.99S
FARIBAULT      CLEAR     66  37  34 S12       29.98S
$$

...ELSEWHERE IN MINNESOTA...


CITY           SKY/WX    TMP DP  RH WIND       PRES   REMARKS
MINNEAPOLIS    PTCLDY    71  36  27 S10       29.95S
INTNL FALLS    CLOUDY    63  35  35 SE5       29.80F
DULUTH         CLOUDY    64  33  31 SW13      29.91F
RED WING       CLEAR     70  28  21 S5        29.97F
REDWOOD FALLS  CLEAR     71  42  35 S17G25    29.89F
MANKATO        CLEAR     68  40  35 S9        29.96S
WORTHINGTON    CLEAR     70  46  42 S12G17    29.94F
FAIRMONT       CLEAR     68  44  42 S13       29.96F
$$

...SOUTHWEST WISCONSIN...


CITY           SKY/WX    TMP DP  RH WIND       PRES   REMARKS
LA CROSSE      CLEAR     67  36  31 S9        30.05S
PRAIRIE DU CHI CLEAR     69  32  25 SE5       30.08S
BOSCOBEL       CLEAR     68  37  32 S7        30.09S
LONE ROCK      NOT AVBL
PLATTEVILLE    CLEAR     66  37  33 S7        30.12S
FORT MC COY    CLEAR     66  35  30 S7        30.07S
MAUSTON-NEW LI CLEAR     67  35  30 S6        30.08R
VIROQUA        FAIR      66  38  34 S6        30.09S
WIS DELLS      CLEAR     64  32  29 S7        30.10S
$$

...ELSEWHERE IN WISCONSIN...


CITY           SKY/WX    TMP DP  RH WIND       PRES   REMARKS
MILWAUKEE      MOCLDY    60  28  29 S9        30.15R
MADISON        MOCLDY    65  35  33 S6        30.11F
GREEN BAY      CLEAR     62  40  44 S6        30.08S
EAU CLAIRE     NOT AVBL
BLACK RVR FLS  FAIR      69  32  25 S3        30.05S
MEDFORD        CLEAR     63  34  34 S7        30.05S
WAUSAU         CLEAR     63  34  33 S5        30.04S
WIS RAPIDS     CLEAR     64  37  36 S5        30.08R
MARSHFIELD     CLEAR     63  32  31 S8        30.05S
RICE LAKE      CLEAR     67  33  29 S10       30.00S
$$

...NORTHEAST IOWA...


CITY           SKY/WX    TMP DP  RH WIND       PRES   REMARKS
WATERLOO       CLEAR     66  39  37 SE8       30.05S
DUBUQUE        CLEAR     64  36  35 SE7       30.11F
DECORAH        CLEAR     66  34  30 S8        30.06F
MASON CITY     CLEAR     66  39  37 SE10      30.03F
CHARLES CITY   CLEAR     66  36  32 SE8       30.05F
OELWEIN        CLEAR     66  39  37 SE7       30.08S
$$

...ELSEWHERE IN IOWA...


CITY           SKY/WX    TMP DP  RH WIND       PRES   REMARKS
DES MOINES     PTCLDY    74  55  51 SE9       30.02S
IOWA CITY      CLOUDY    71  53  52 SE8       30.08F
FORT DODGE     CLEAR     71  48  43 SE7       30.00F
MARSHALLTOWN   CLEAR     71  52  50 SE12      30.03S
CEDAR RAPIDS   CLOUDY    71  49  45 SE7       30.07S
$$

...NORTHERN ILLINOIS...


CITY           SKY/WX    TMP DP  RH WIND       PRES   REMARKS
CHICAGO-OHARE  CLOUDY    61  26  26 SE9       30.16S
CHICAGO-MIDWAY CLOUDY    63  28  26 VRB7      30.17S
MOLINE         CLEAR     70  51  51 SE5       30.10R
ROCKFORD       MOCLDY    63  36  36 S8        30.15S
PEORIA         CLEAR     71  54  54 CALM      30.12S
$$

NOTE: "FAIR" INDICATES FEW OR NO CLOUDS BELOW 12,000 FEET WITH NO
SIGNIFICANT WEATHER AND/OR OBSTRUCTIONS TO VISIBILITY. WIND
SPEEDS ARE IN MILES-PER-HOUR.




USA.gov is the U.S. government's official web portal to all federal, state and local government web resources and services.